[[{"header":{"parameterUnit":"m.s-1","parameterCategory":1,"la1":30.2991,"la2":30.254,"lo1":-89.0895,"lo2":-89.0444,"dy":0.0017,"dx":0.0017,"nx":28,"ny":28,"refTime":"2025-01-30T03:00:00:Z","depth":0,"parameterNumber":2,"parameterNumberName":"U-component_of_WINDS"},"data":[0,0,0,0,0,0,0,0,0,0,0,0,0,0,0,0,0,0,0,0,0,0,0,0,0,0,0,0,0,0,0,0,0,0,0,0,0,0,0,0,0,0,0,0,0,0,0,0,0,0,0,0,0,0,0,0,0,0,4.0393,4.0392,0,4.0304,4.0303,4.0302,4.0248,4.0248,4.0248,4.0247,4.0152,4.015,4.0147,0,0,0,0,0,0,0,0,0,0,0,0,0,4.0517,4.0515,4.0393,4.0392,4.0391,4.0304,4.0303,4.0301,4.0248,4.0248,4.0248,4.0247,4.0153,4.015,4.0147,0,0,0,0,0,0,0,0,0,0,0,0,0,4.0449,4.0515,4.0394,4.0354,4.035,4.0304,4.0303,4.0301,4.0248,4.0248,4.0248,4.0247,4.0154,4.015,4.0147,4.0132,0,0,4.0136,4.0135,0,0,0,0,0,0,0,0,4.0453,4.0445,4.0361,4.0357,4.0352,4.0287,4.0311,4.0244,4.0248,4.0287,4.0247,4.0247,4.0197,4.019,4.0174,4.0128,4.0124,4.0136,4.0134,4.0132,4.0131,0,0,0,0,0,0,0,4.0458,4.0448,4.0358,4.036,4.0354,4.0341,4.0331,4.0298,4.0245,4.0283,4.0279,4.027,4.0194,4.0177,4.0171,4.0122,4.0136,4.0133,4.0131,4.0129,4.0064,4.0064,0,0,0,0,0,0,4.0469,4.0453,4.0361,4.0355,4.0403,4.0339,4.0327,4.0308,4.0245,4.0235,4.027,4.0267,4.0183,4.0175,4.0167,4.0148,4.0132,4.0129,4.0127,4.0063,4.0064,4.0064,0,0,0,0,0,0,4.0472,4.0462,4.0364,4.0403,4.0389,4.0337,4.0316,4.0306,4.0289,4.0235,4.0225,4.0262,4.0183,4.0172,4.0142,4.0144,4.0127,4.0124,4.0063,4.0063,4.0064,4.0109,0,0,0,0,0,0,4.0476,4.0463,4.0457,4.0403,4.0388,4.0341,4.0316,4.0305,4.0284,4.028,4.0225,4.0216,4.0182,4.0148,4.0139,4.0139,4.0122,4.0062,4.0063,4.0064,4.0107,4.0111,4.0114,0,0,0,0,0,4.0481,4.0471,4.0457,4.0446,4.0379,4.0341,4.0332,4.0294,4.0284,4.0278,4.0244,4.0217,4.0146,4.0145,4.0135,4.0134,4.0062,4.0063,4.0064,4.0105,4.011,4.0114,0,0,0,0,0,0,4.0524,4.0463,4.0446,4.042,4.0386,4.0332,4.0322,4.03,4.0267,4.0265,4.0218,4.0206,4.0181,4.0154,4.0155,4.0118,4.0101,4.01,4.0136,4.0141,4.0144,4.0151,4.0119,0,0,0,0,0,4.0531,4.0506,4.0454,4.0436,4.042,4.0375,4.0357,4.0331,4.0294,4.0279,4.0242,4.0206,4.0176,4.0157,4.0126,4.0103,4.0092,4.0098,4.0102,4.0105,4.0104,4.0093,4.0096,4.0067,4.0067,4.0067,0,0,4.0544,4.0508,4.0494,4.0444,4.0415,4.039,4.0363,4.0337,4.0319,4.0274,4.0245,4.0217,4.0174,4.0149,4.0136,4.0126,4.011,4.0106,4.0109,4.0106,4.0094,4.0097,4.0099,4.0067,4.0067,4.0067,0,0,4.0555,4.0525,4.0508,4.0481,4.0438,4.0409,4.0405,4.0355,4.0336,4.0306,4.0274,4.0251,4.0199,4.0171,4.015,4.0156,4.0131,4.0147,4.0165,4.0155,4.0158,4.0159,4.0163,4.0165,4.0147,4.0147,4.0147,0,4.0576,4.0539,4.0501,4.0479,4.0458,4.042,4.0403,4.0378,4.0327,4.0314,4.0304,4.0241,4.0209,4.0178,4.018,4.0164,4.0158,4.0152,4.016,4.0162,4.0163,4.0166,4.0167,4.0149,4.0149,4.0148,4.0148,0,4.0568,4.0543,4.0534,4.0489,4.0467,4.0447,4.0407,4.039,4.0367,4.0339,4.0311,4.0272,4.0234,4.0225,4.0201,4.0191,4.0187,4.0169,4.0151,4.0169,4.0171,4.0171,4.0152,4.0151,4.0151,4.015,0,0,4.0601,4.0539,4.0536,4.0517,4.0469,4.0449,4.0428,4.0393,4.038,4.0347,4.033,4.0289,4.0274,4.025,4.0223,4.0215,4.0225,4.0198,4.0197,4.0206,4.0214,4.0228,4.023,4.0209,4.0209,4.0209,4.0218,0,4.0606,4.0568,4.0536,4.051,4.0487,4.0453,4.0436,4.0405,4.0379,4.0356,4.0327,4.03,4.0281,4.0267,4.0257,4.0226,4.0226,4.0225,4.0192,4.0191,4.0204,4.023,4.0244,4.0254,4.0219,4.0219,4.0219,0,4.0605,4.0577,4.055,4.0509,4.0498,4.0483,4.045,4.0428,4.0394,4.0376,4.0352,4.0325,4.0303,4.0289,4.0258,4.0258,4.0244,4.0227,4.0226,4.0221,4.0206,4.0227,4.0256,4.0258,4.0219,4.0219,4.0219,0,4.0634,4.0589,4.0568,4.0552,4.0502,4.0493,4.0472,4.0437,4.042,4.0391,4.0379,4.0348,4.0331,4.0307,4.0273,4.0266,4.0247,4.0229,4.0232,4.0233,4.0228,4.0229,4.0256,4.0219,4.0219,4.0219,4.0219,0,4.0642,4.0627,4.058,4.0567,4.055,4.0514,4.0498,4.0474,4.0444,4.0426,4.0394,4.0378,4.0334,4.0313,4.0286,4.0266,4.0258,4.0244,4.0237,4.0246,4.0249,4.0235,4.0234,4.022,4.0219,4.0219,4.0219,0,4.067,4.0638,4.0613,4.057,4.0559,4.0548,4.0511,4.0498,4.0472,4.045,4.0443,4.0402,4.0376,4.0341,4.0302,4.0285,4.0269,4.0257,4.0281,4.0277,4.0282,4.0282,4.0302,4.0303,4.0265,4.0266,4.0266,0,4.0677,4.0665,4.0623,4.0609,4.059,4.0568,4.0551,4.0517,4.05,4.0463,4.0454,4.0426,4.0402,4.0362,4.0329,4.0301,4.0289,4.0298,4.0284,4.0295,4.029,4.0291,4.0291,4.0301,4.0301,4.0302,4.0302,0,4.0694,4.068,4.0657,4.063,4.0611,4.0588,4.0562,4.0553,4.0513,4.0497,4.0471,4.0452,4.0416,4.0389,4.0358,4.0335,4.0313,4.0307,4.0307,4.0316,4.0331,4.0324,4.029,4.0306,4.0306,4.0306,4.0305,4.0305,4.0712,4.0701,4.067,4.0647,4.0626,4.0604,4.059,4.0565,4.0543,4.0512,4.0493,4.0469,4.0438,4.0393,4.0373,4.0354,4.0344,4.0343,4.0343,4.0343,4.0347,4.0335,4.0348,4.0348,4.0348,4.0347,4.0347,0,4.0728,4.0708,4.0687,4.0654,4.0637,4.062,4.0592,4.0578,4.0558,4.0532,4.051,4.0482,4.0457,4.0424,4.0397,4.0388,4.0378,4.0382,4.0382,4.0378,4.0356,4.036,4.0392,4.0392,4.0392,4.0392,4.0392,4.0392,4.0734,4.0715,4.0699,4.067,4.065,4.0627,4.0614,4.0594,4.0574,4.0545,4.0525,4.0504,4.0476,4.0448,4.0425,4.0416,4.0407,4.0416,4.0404,4.0384,4.0379,4.0376,4.0379,4.0414,4.0414,4.0427,4.0427,4.0428]},{"header":{"parameterUnit":"m.s-1","parameterCategory":1,"la1":30.2991,"la2":30.254,"lo1":-89.0895,"lo2":-89.0444,"dy":0.0017,"dx":0.0017,"nx":28,"ny":28,"refTime":"2025-01-30T03:00:00:Z","depth":0,"parameterNumber":3,"parameterNumberName":"V-component_of_WINDS"},"data":[0,0,0,0,0,0,0,0,0,0,0,0,0,0,0,0,0,0,0,0,0,0,0,0,0,0,0,0,0,0,0,0,0,0,0,0,0,0,0,0,0,0,0,0,0,0,0,0,0,0,0,0,0,0,0,0,0,0,0.8013,0.8014,0,0.812,0.8121,0.8122,0.8169,0.8169,0.8168,0.8168,0.8279,0.8282,0.8285,0,0,0,0,0,0,0,0,0,0,0,0,0,0.7847,0.785,0.8012,0.8014,0.8015,0.812,0.8121,0.8123,0.8169,0.8169,0.8168,0.8168,0.8278,0.8282,0.8285,0,0,0,0,0,0,0,0,0,0,0,0,0,0.7933,0.7851,0.8012,0.8051,0.8055,0.8119,0.8121,0.8123,0.8169,0.8169,0.8168,0.8168,0.8277,0.8281,0.8286,0.832,0,0,0.83,0.8302,0,0,0,0,0,0,0,0,0.7928,0.7939,0.8044,0.8048,0.8053,0.8131,0.8104,0.8189,0.8169,0.8126,0.8168,0.8168,0.823,0.8238,0.8259,0.8325,0.833,0.83,0.8303,0.8305,0.8307,0,0,0,0,0,0,0,0.7922,0.7935,0.8055,0.8045,0.8051,0.8063,0.8074,0.812,0.8178,0.8129,0.8133,0.8145,0.8232,0.8254,0.8262,0.8331,0.83,0.8304,0.8307,0.8309,0.8429,0.843,0,0,0,0,0,0,0.791,0.793,0.8052,0.8058,0.7989,0.8066,0.8079,0.8106,0.8178,0.8188,0.8145,0.8147,0.8247,0.8256,0.8266,0.831,0.8305,0.831,0.8312,0.8429,0.8429,0.843,0,0,0,0,0,0,0.7906,0.792,0.8047,0.7995,0.8012,0.8069,0.8099,0.8108,0.813,0.8189,0.82,0.8157,0.8247,0.826,0.8306,0.8315,0.8312,0.8316,0.8428,0.8429,0.843,0.8398,0,0,0,0,0,0,0.7901,0.7919,0.7933,0.7995,0.8015,0.8085,0.8099,0.8111,0.8138,0.8141,0.8203,0.8213,0.8248,0.8299,0.831,0.8321,0.832,0.8428,0.8429,0.8429,0.8399,0.8398,0.8397,0,0,0,0,0,0.7895,0.792,0.7933,0.7947,0.8033,0.8086,0.8097,0.8135,0.8139,0.8153,0.819,0.8211,0.8311,0.8303,0.8317,0.8329,0.8428,0.8428,0.8429,0.8399,0.8398,0.8397,0,0,0,0,0,0,0.7858,0.7929,0.7944,0.799,0.8031,0.8093,0.8113,0.8133,0.8175,0.8176,0.8222,0.8236,0.8278,0.8308,0.8297,0.8365,0.8371,0.8375,0.8344,0.8343,0.8342,0.8334,0.8324,0,0,0,0,0,0.7855,0.7892,0.7952,0.7986,0.8006,0.8055,0.808,0.8106,0.8151,0.8169,0.821,0.8253,0.8294,0.832,0.8361,0.8403,0.8417,0.8418,0.8417,0.8416,0.8419,0.8442,0.8443,0.8433,0.8433,0.8433,0,0,0.7849,0.7893,0.7913,0.798,0.8015,0.8052,0.807,0.8109,0.8136,0.8175,0.8221,0.8252,0.8303,0.8347,0.8368,0.8373,0.8424,0.8417,0.8416,0.8419,0.8443,0.8444,0.8445,0.8433,0.8433,0.8433,0,0,0.7858,0.7894,0.7927,0.7961,0.8014,0.8046,0.8054,0.8112,0.8135,0.8181,0.821,0.8244,0.8314,0.8349,0.8375,0.8395,0.8415,0.8407,0.8402,0.8424,0.8425,0.8426,0.8433,0.8435,0.8409,0.8409,0.8409,0,0.7845,0.7901,0.7941,0.7977,0.8006,0.8041,0.8073,0.8105,0.8168,0.8187,0.8191,0.8279,0.8315,0.8368,0.8372,0.8393,0.8402,0.84,0.8422,0.8423,0.8425,0.8431,0.8434,0.8408,0.8408,0.8408,0.8408,0,0.7882,0.7921,0.794,0.8,0.803,0.8064,0.8109,0.8135,0.8157,0.8189,0.8235,0.828,0.8331,0.8345,0.8368,0.84,0.8401,0.8413,0.842,0.8424,0.8431,0.8434,0.8406,0.8406,0.8407,0.8407,0,0,0.7872,0.7951,0.7958,0.7985,0.8044,0.8075,0.811,0.8159,0.818,0.8222,0.8253,0.831,0.8321,0.8351,0.8378,0.8398,0.8409,0.8407,0.8409,0.8406,0.8447,0.8438,0.844,0.8423,0.8424,0.8424,0.8443,0,0.7888,0.7954,0.7989,0.8039,0.8075,0.8108,0.8139,0.8179,0.8209,0.8244,0.8277,0.8317,0.8328,0.8346,0.8367,0.8403,0.8418,0.8403,0.8452,0.8453,0.8439,0.8444,0.8435,0.8451,0.8446,0.8446,0.8447,0,0.7917,0.7958,0.8011,0.8065,0.8082,0.8109,0.8156,0.8188,0.8234,0.8254,0.8287,0.8313,0.8351,0.8355,0.8408,0.8396,0.8418,0.8439,0.8441,0.8447,0.8451,0.8451,0.8457,0.8459,0.8452,0.8451,0.8451,0,0.7904,0.7972,0.8012,0.8034,0.8099,0.8117,0.8145,0.819,0.8216,0.8257,0.8274,0.8319,0.8344,0.8377,0.8415,0.8414,0.8464,0.8471,0.8482,0.8481,0.8492,0.849,0.8501,0.8505,0.8505,0.8505,0.8505,0,0.7919,0.795,0.8007,0.8032,0.8068,0.8108,0.8142,0.8173,0.8212,0.8243,0.8275,0.8303,0.835,0.8385,0.8414,0.8453,0.8464,0.8481,0.8489,0.8479,0.8477,0.8495,0.8495,0.8505,0.8505,0.8505,0.8505,0,0.7911,0.795,0.7996,0.8053,0.8068,0.8092,0.814,0.8166,0.8197,0.8236,0.8247,0.8296,0.8338,0.8378,0.8434,0.8454,0.8493,0.8502,0.8477,0.8481,0.849,0.8489,0.8513,0.8518,0.8518,0.8518,0.8518,0,0.7918,0.7943,0.8002,0.8025,0.8052,0.8088,0.8115,0.8155,0.8182,0.8234,0.8253,0.8297,0.8334,0.8399,0.844,0.8483,0.8494,0.8499,0.8501,0.8489,0.8494,0.8492,0.8495,0.8498,0.8498,0.8498,0.8498,0,0.7927,0.7945,0.7982,0.8026,0.8057,0.8093,0.8131,0.8148,0.8195,0.8223,0.8266,0.8295,0.8351,0.8395,0.8442,0.847,0.8492,0.8497,0.8502,0.8492,0.8476,0.8485,0.8475,0.8496,0.8497,0.8497,0.8497,0.8497,0.7927,0.795,0.7995,0.8035,0.8067,0.8101,0.8127,0.8161,0.8197,0.8247,0.8268,0.8311,0.8354,0.842,0.8448,0.8482,0.8487,0.8494,0.8496,0.8497,0.8495,0.847,0.849,0.8491,0.8491,0.8491,0.8491,0,0.7937,0.7967,0.8004,0.8055,0.8086,0.8103,0.8145,0.817,0.8208,0.8246,0.8282,0.833,0.8372,0.8415,0.8459,0.8478,0.8489,0.8488,0.8487,0.8493,0.8488,0.8479,0.8478,0.8478,0.8478,0.8478,0.8478,0.8478,0.7946,0.7986,0.8009,0.8065,0.8095,0.8137,0.8159,0.8191,0.8222,0.8274,0.8309,0.8336,0.8376,0.8423,0.8462,0.8473,0.8488,0.8484,0.8499,0.8493,0.8494,0.8494,0.8487,0.8487,0.8487,0.8501,0.8501,0.8502]}]]